Forside
METAR-TAF:

METAR-TAF

Lufthavne :

Owatonna Degner Regional Airport

Owatonna, Minnesota, USA

Breddekreds: 44-07N, længdekreds: 093-15W, højde: 350 m

Aktuelle vejr

Denne rapport blev lavet for 17 minutter siden, kl. 01:13 UTC
Vind 7 kt fra vestnordvest
Temperatur 16°C
Fugtighed 48%
Tryk 1014 hPa
Sigt: 16.1 km
Spredte skyer i en højde af 7000 ft
Spredte skyer i en højde af 8000 ft

METAR: KOWA 220113Z AUTO 29007KT 10SM SCT070 SCT080 16/05 A2995 RMK AO2 TSNO

Tid: 20:30 (01:30 UTC)


TAF: fraværende

Vejrobservationer og prognoser fra mere end 4000 lufthavne (METAR og TAF).

De gule og røde prikker repræsenterer de meteorologiske stationer.

Flyt musen over at se navnet på stationen.

Så klik over at se vejr observationer og prognoser.

At skifte det kort: Klik på de grønne knapper med et sort kors for at zoome ind; på den grønne knap med en bindestreg for at zoome ud; eller på de grønne pile for tilstødende kort.


METAR-TAF: